Regional Weather Roundup
Issued by NWS

Home | Current Version | Previous Version | Text Only | Print | Product List | Glossary Off
Versions: 1 2 3 4 5 6 7 8 9 10 11 12 13 14 15 16 17 18 19 20 21 22 23 24 25 26 27 28 29 30 31 32 33 34 35 36 37 38 39 40 41 42 43 44 45 46 47 48 49 50

000
ASUS43 KIND 180409
RWRIN

WEATHER ROUNDUP FOR INDIANA
NATIONAL WEATHER SERVICE INDIANAPOLIS IN
1100 PM EST SUN DEC 17 2017

NOTE: "FAIR" INDICATES FEW OR NO CLOUDS BELOW 12,000 FEET WITH NO
SIGNIFICANT WEATHER AND/OR OBSTRUCTIONS TO VISIBILITY.

* - STATION DOES NOT REPORT WEATHER SUCH AS PRECIPITATION OR FOG.

+ - STATION NOT QUALITY CONTROLLED BY THE NATIONAL WEATHER SERVICE.
    USE DATA WITH CAUTION...ESPECIALLY DEWPOINT AND RELATIVE
    HUMIDITY OBSERVATIONS.

INZ001>003-010>013-019-020-180500-
NORTHWEST INDIANA

CITY           SKY/WX    TMP DP  RH WIND       PRES   REMARKS
GARY /AIRPORT/ CLOUDY    45  37  76 SW6       30.01F
KNOX *+        CLOUDY    41  36  81 SW10      30.02S
LA PORTE +     CLOUDY    39  35  87 S5        30.01S WCI  35
MICHIGAN CITY+ CLOUDY    41  36  81 S8        30.01S
MONTICELLO +   CLOUDY    41  38  89 S10       30.04F
RENSSELAER +   CLOUDY    41  36  81 S14       30.02F
VALPARAISO     CLOUDY    43  37  79 S9        30.00F

$$

LMZ046-743>745-180500-
SOUTHERN LAKE MICHIGAN

STATION/POSITION TIME  TEMP    WIND        PRES    WAVE
                       AIR SEA DIR/SP/G            HT
                 (UTC) (F)     (DEG/KT/KT) (MB)    (FT)
BURNS HARBOR     0340   42     190/ 10/ 14 1016.3F
MICHIGAN CITY    0340   43     170/ 14/ 17   N/A

$$

INZ004-005-014>016-021>024-180500-
NORTH CENTRAL INDIANA

CITY           SKY/WX    TMP DP  RH WIND       PRES   REMARKS
GOSHEN         CLOUDY    40  36  86 SW12      30.02F WCI  33
LOGANSPORT +   CLOUDY    37  36  93 S8        30.06S WCI  31
PERU/GRISSOM   CLOUDY    40  40 100 SW9       30.05F WCI  34
ROCHESTER +    CLOUDY    41  39  93 SW8       30.04F
SOUTH BEND     CLOUDY    38  36  92 SW10      30.02S WCI  31
WARSAW +       CLOUDY    39  36  87 SW5       30.03F WCI  36

$$

INZ006>009-017-018-025>027-180500-
NORTHEAST INDIANA

CITY           SKY/WX    TMP DP  RH WIND       PRES   REMARKS
AUBURN +       CLOUDY    37  36  93 SW3       30.05R
FORT WAYNE     CLOUDY    38  37  97 SW7       30.06F WCI  33
HUNTINGTON +   CLOUDY    38  37  95 S3        30.05S
KENDALLVILLE + CLOUDY    38  36  92 SW9       30.03S WCI  32

$$

INZ028-029-035-036-043>045-051>053-180500-
WEST CENTRAL INDIANA

CITY           SKY/WX    TMP DP  RH WIND       PRES   REMARKS
CRAWFORDSVL +  CLOUDY    39  39 100 S9        30.07F WCI  32
GREENCASTLE +  CLOUDY    41  36  81 SW3       30.09S
LAFAYETTE      CLOUDY    41  38  89 SW7       30.06F
TERRE HAUTE    CLOUDY    43  39  86 S8        30.09F

$$

INZ030>032-037>040-046>048-054>057-064-065-180500-
CENTRAL INDIANA

CITY           SKY/WX    TMP DP  RH WIND       PRES   REMARKS
FRANKFORT +    CLOUDY    42  39  88 SW8       30.08S
GREENWOOD *+   CLOUDY    42  37  82 S5        30.10S
INDIANAPOLIS   CLOUDY    40  36  86 S3        30.09S
-EAGLE CREEK   CLOUDY    41  35  79 S6        30.08S
KOKOMO +       CLOUDY    39  37  92 S8        30.07S WCI  33
MARION +       CLOUDY    37  35  90 S7        30.08S WCI  32
MT COMFORT *+  CLOUDY    37  36  93 S5        30.09S WCI  34
SHELBYVILLE    CLOUDY    40  34  79 S8        30.09S WCI  34
ZIONSVILLE +   CLOUDY    40  36  87 SW10      30.08S WCI  33

$$

INZ033-034-041-042-049-050-058-059-180500-
EAST CENTRAL INDIANA

CITY           SKY/WX    TMP DP  RH WIND       PRES   REMARKS
MUNCIE         CLOUDY    42  34  73 SW8       30.08R
RICHMOND +     CLOUDY    36  34  93 SW7       30.10S WCI  30

$$

INZ060-061-067>069-081>083-085>088-180500-
SOUTHWEST INDIANA

CITY           SKY/WX    TMP DP  RH WIND       PRES   REMARKS
EVANSVILLE     LGT RAIN  43  43 100 SW6       30.13F
HUNTINGBURG +  CLOUDY    42  41  96 S7        30.13S FOG
WASHINGTON +   CLOUDY    42  40  93 S6        30.11F

$$

INZ062-063-066-070>080-084-089>092-180500-
SOUTH CENTRAL AND SOUTHEAST INDIANA

CITY           SKY/WX    TMP DP  RH WIND       PRES   REMARKS
BEDFORD +      CLOUDY    43  37  81 S6        30.11S
BLOOMINGTON    CLOUDY    42  36  79 S6        30.09F
MADISON *+     CLOUDY    41  37  87 S3        30.14S
NORTH VERNON + CLOUDY    41  36  81 S5        30.12F
SEYMOUR +      CLOUDY    43  37  81 S6        30.12S

$$




USA.gov is the U.S. government's official web portal to all federal, state and local government web resources and services.